User: anonymous   Login
Location: Utrecht
(52.0917°N, 5.1178°E)
Time: 17:35:13
(UTC+01:00)
Language:

Tiangong 1 - Orbit

View from above orbital plane
View from above orbital plane
View from above satellite
View from above satellite

Ground track
Ground track

The orbit data is extracted from the following two-line orbital elements,

1 37820U 11053A   17326.19848207  .00068082  99703-5  19994-3 0  9990
2 37820  42.7541 304.6213 0017916 134.2962 341.0021 15.92184129353032
Epoch (UTC): 22 November 2017 04:45:48
Eccentricity: 0.0017916
inclination: 42.7541°
perigee height: 284 km
apogee height: 308 km
right ascension of ascending node: 304.6213°
argument of perigee: 134.2962°
revolutions per day: 15.92184129
mean anomaly at epoch: 341.0021°
orbit number at epoch: 35303

The dashed part of the orbit path shows where the satellite is in the earth's shadow,  

DLR